Flag for Ukraine Weather past 2 weeks in Kryvyi Rih, Ukraine

Now
82 °F

Passing clouds.


Feels Like: 81 °F
Forecast: 62 / 80 °F
Wind: 8 mph from Southwest

Location: Krivyy Rih / Dnipropetrovs'k

Current Time: Aug 21, 2014 at 7:23:14 PM

Latest Report: Aug 21, 2014 at 7:00 PM


Visibility: N/A

Pressure: 29.92 "Hg

Humidity: 32%

Dew point: 50 °F

Location of Kryvyi RihLocation

Historic Weather in Kryvyi Rih — Graph

°F

Kryvyi Rih temperature yesterday

Maximum temperature yesterday: 86 °F (at 2:02 PM)
Minimum temperature yesterday: 57 °F (at 4:00 AM)
Average temperature yesterday: 73 °F

Past Weeks' High & Low Weather Summary

 TemperatureHumidityPressure
High99 °F (Aug 14, 4:00 PM)100% (Aug 19, 2:00 AM)30.07 "Hg (Aug 19, 2:00 AM)
Low52 °F (Aug 19, 6:30 AM)21% (Aug 7, 2:00 PM)29.68 "Hg (Aug 15, 5:30 PM)
Average76 °F53%29.89 "Hg
* Reported Aug 6 6:00 PM — Aug 21 6:00 PM, Kryvyi Rih, Weather by CustomWeather, © 2014

Note: Actual official high and low records may vary slightly from our data, if they occured in-between our weather recording intervals... More about our weather records

Advertising

Kryvyi Rih weather history for previous 24 hours

 ConditionsComfort  
Time TempWeatherWind HumidityBarometerVisibility
6:00 PM
Aug 21
86 °FScattered clouds.8 mph24%29.92 "HgN/A
5:30 PM86 °FScattered clouds.10 mph24%29.92 "HgN/A
5:00 PM86 °FScattered clouds.10 mph24%29.95 "HgN/A
4:30 PM88 °FScattered clouds.10 mph24%29.95 "HgN/A
4:00 PM88 °FScattered clouds.8 mph24%29.95 "HgN/A
3:30 PM86 °FScattered clouds.13 mph24%29.95 "HgN/A
3:00 PM86 °FScattered clouds.13 mph24%29.98 "HgN/A
2:30 PM86 °FScattered clouds.13 mph25%29.98 "HgN/A
2:00 PM86 °FScattered clouds.10 mph25%29.98 "HgN/A
1:30 PM84 °FScattered clouds.10 mph27%29.98 "HgN/A
1:00 PM84 °FScattered clouds.8 mph27%30.01 "HgN/A
12:30 PM82 °FPassing clouds.8 mph28%30.01 "HgN/A
12:00 PM82 °FPassing clouds.10 mph28%30.01 "HgN/A
11:30 AM82 °FPassing clouds.6 mph35%30.01 "HgN/A
11:00 AM82 °FPassing clouds.6 mph35%30.01 "HgN/A
10:30 AM79 °FPassing clouds.6 mph42%30.01 "HgN/A
10:00 AM79 °FSunny.1 mph42%30.01 "Hg10 mi
9:30 AM72 °FSunny.No wind61%30.04 "Hg10 mi
9:00 AM72 °FSunny.No wind61%30.04 "Hg10 mi
8:30 AM63 °FSunny.1 mph68%30.04 "Hg10 mi
8:00 AM63 °FSunny.1 mph68%30.04 "Hg10 mi
7:30 AM63 °FSunny.No wind68%30.04 "Hg10 mi
7:00 AM63 °FSunny.No wind68%30.04 "Hg10 mi
6:30 AM61 °FClear.No wind68%30.04 "Hg10 mi
6:00 AM61 °FClear.No wind68%30.04 "Hg10 mi
5:30 AM63 °FClear.No wind68%30.01 "Hg10 mi
5:00 AM63 °FClear.1 mph68%30.01 "Hg10 mi
4:30 AM64 °FClear.3 mph64%30.01 "Hg10 mi
4:00 AM64 °FClear.1 mph64%30.01 "Hg10 mi
3:30 AM64 °FClear.3 mph64%30.01 "Hg10 mi
2:30 AM64 °FClear.3 mph64%30.01 "Hg10 mi
2:00 AM64 °FClear.3 mph64%30.01 "Hg10 mi
1:30 AM66 °FClear.6 mph60%30.01 "Hg10 mi
1:00 AM66 °FClear.3 mph60%30.01 "Hg10 mi
12:30 AM68 °FClear.6 mph56%30.01 "Hg10 mi
12:00 AM68 °FClear.6 mph56%30.01 "Hg10 mi
11:30 PM
Aug 20
70 °FClear.6 mph50%30.01 "Hg10 mi
11:00 PM70 °FClear.6 mph50%30.01 "Hg10 mi
10:30 PM72 °FClear.6 mph50%30.01 "Hg10 mi
10:00 PM72 °FClear.3 mph50%30.01 "Hg10 mi
9:30 PM77 °FClear.1 mph39%30.01 "Hg10 mi
9:00 PM77 °FClear.3 mph39%30.01 "Hg10 mi
8:30 PM77 °FSunny.6 mph39%30.01 "Hg10 mi
8:00 PM77 °FSunny.3 mph39%30.01 "Hg10 mi
7:30 PM82 °FSunny.3 mph30%29.98 "Hg10 mi
7:00 PM82 °FSunny.3 mph30%29.98 "Hg10 mi
Weather by CustomWeather, © 2014

See weather overviewHow to use our weather pages